Terminal Aerodrome Forecast
Issued by NWS New Orleans/Baton Rouge, LA

Home | Current Version | Previous Version | Text Only | Print | Product List | Glossary On
Versions: 1 2 3 4 5 6 7 8 9 10 11 12 13 14 15 16 17 18 19
000
FTUS44 KLIX 051419 AAA
TAFNEW
TAF AMD
KNEW 051419Z 0514/0612 07008KT 1SM BR VCSH OVC003
     FM051600 08010KT 2SM SHRA OVC008
     FM051800 10011KT 2SM SHRA VCTS OVC008CB
     FM052200 12010KT 2SM BR VCSH OVC003
     FM060600 23020G30KT 4SM BR OVC003=

USA.gov is the U.S. government's official web portal to all federal, state and local government web resources and services.